Location: B?ogocice
(50.2413°N, 20.2361°E)
Time: 12:18:54
(UTC+00:00)

ALOS - Pass Details

Date: 23 September 2024
Orbit: 669 x 673 km, 98.0° (Epoch: 09 October)

Event Time Altitude Azimuth Distance (km) Brightness Sun altitude
Rises 02:36:47 0° 5° (N) 3,031 6.0 -18.0°
Reaches altitude 10° 02:39:17 10° 354° (N) 2,112 5.0 -17.7°
Maximum altitude 02:43:07 27° 297° (WNW) 1,295 3.3 -17.1°
Enters shadow 02:43:47 26° 283° (WNW) 1,326 3.3 -17.0°
